Back to catalog

STARLINK-30761

AliveCommunicationsVLEO
NORAD 58134·PAYLOAD·🇺🇸 United States

Launched Oct 22, 2023 from Cape Canaveral Space Force Station

Loading…

Next Passes (next 24 hours)

TLE

FreshSource: CelesTrak SupGP

Epoch: Sep 14, 2026, 22:28 UTC

1 58134C 23162S   26257.93659722 -.00048895  00000+0 -17712-2 0  2572
2 58134  42.9991 143.8324 0001334 267.0230 268.2108 15.27597985    19

Track STARLINK-30761 in real time with AllMySat

Download on the App Store